TimePDT,TemperatureF,Dew PointF,Humidity,Sea Level PressureIn,VisibilityMPH,Wind Direction,Wind SpeedMPH,Gust SpeedMPH,PrecipitationIn,Events,Conditions,WindDirDegrees,DateUTC
12:15 AM,32.0,26.6,80,30.11,10.0,Calm,Calm,-,N/A,,Clear,0,2013-10-11 07:15:00
12:35 AM,32.0,26.6,80,30.11,10.0,Calm,Calm,-,N/A,,Clear,0,2013-10-11 07:35:00
12:55 AM,32.0,26.6,80,30.11,10.0,Calm,Calm,-,N/A,,Clear,0,2013-10-11 07:55:00
1:15 AM,32.0,26.6,80,30.11,10.0,Calm,Calm,-,N/A,,Clear,0,2013-10-11 08:15:00
1:35 AM,28.4,24.8,86,30.11,10.0,WNW,3.5,-,N/A,,Clear,300,2013-10-11 08:35:00
1:55 AM,28.4,24.8,86,30.11,10.0,Calm,Calm,-,N/A,,Clear,0,2013-10-11 08:55:00
2:15 AM,26.6,23.0,86,30.11,10.0,North,-9999.0,-,N/A,,Clear,0,2013-10-11 09:15:00
2:35 AM,26.6,24.8,93,30.11,10.0,North,-9999.0,-,N/A,,Clear,0,2013-10-11 09:35:00
2:55 AM,26.6,24.8,93,30.12,10.0,NW,3.5,-,N/A,,Clear,320,2013-10-11 09:55:00
3:15 AM,24.8,23.0,93,30.12,10.0,Calm,Calm,-,N/A,,Clear,0,2013-10-11 10:15:00
3:35 AM,26.6,24.8,93,30.12,10.0,North,-9999.0,-,N/A,,Clear,0,2013-10-11 10:35:00
3:55 AM,26.6,24.8,93,30.13,10.0,North,3.5,-,N/A,,Clear,360,2013-10-11 10:55:00
4:15 AM,26.6,23.0,86,30.12,10.0,Calm,Calm,-,N/A,,Clear,0,2013-10-11 11:15:00
4:35 AM,26.6,23.0,86,30.13,10.0,North,-9999.0,-,N/A,,Clear,0,2013-10-11 11:35:00
4:55 AM,26.6,23.0,86,30.13,10.0,North,-9999.0,-,N/A,,Clear,0,2013-10-11 11:55:00
5:15 AM,24.8,23.0,93,30.13,10.0,Calm,Calm,-,N/A,,Clear,0,2013-10-11 12:15:00
5:35 AM,21.2,19.4,93,30.14,10.0,Calm,Calm,-,N/A,,Clear,0,2013-10-11 12:35:00
5:55 AM,23.0,21.2,93,30.13,10.0,North,-9999.0,-,N/A,,Clear,0,2013-10-11 12:55:00
6:15 AM,23.0,21.2,93,30.15,10.0,North,3.5,-,N/A,,Clear,350,2013-10-11 13:15:00
6:35 AM,24.8,23.0,93,30.15,10.0,Calm,Calm,-,N/A,,Clear,0,2013-10-11 13:35:00
6:55 AM,23.0,21.2,93,30.15,10.0,North,4.6,-,N/A,,Clear,350,2013-10-11 13:55:00
7:15 AM,23.0,21.2,93,30.15,10.0,North,-9999.0,-,N/A,,Clear,0,2013-10-11 14:15:00
7:35 AM,24.8,21.2,86,30.16,10.0,Calm,Calm,-,N/A,,Clear,0,2013-10-11 14:35:00
7:55 AM,26.6,24.8,93,30.17,10.0,Calm,Calm,-,N/A,,Clear,0,2013-10-11 14:55:00
8:15 AM,30.2,26.6,86,30.16,10.0,Calm,Calm,-,N/A,,Clear,0,2013-10-11 15:15:00
8:35 AM,32.0,28.4,87,30.17,10.0,Calm,Calm,-,N/A,,Clear,0,2013-10-11 15:35:00
8:55 AM,35.6,30.2,81,30.17,10.0,Calm,Calm,-,N/A,,Clear,0,2013-10-11 15:55:00
9:15 AM,39.2,30.2,70,30.17,10.0,SSE,4.6,-,N/A,,Clear,150,2013-10-11 16:15:00
9:35 AM,41.0,30.2,65,30.16,10.0,Calm,Calm,-,N/A,,Clear,0,2013-10-11 16:35:00
9:55 AM,42.8,28.4,57,30.16,10.0,Calm,Calm,-,N/A,,Clear,0,2013-10-11 16:55:00
10:15 AM,46.4,30.2,53,30.17,10.0,SSE,5.8,-,N/A,,Clear,150,2013-10-11 17:15:00
10:35 AM,48.2,28.4,46,30.17,10.0,SSE,5.8,-,N/A,,Clear,150,2013-10-11 17:35:00
10:55 AM,50.0,28.4,43,30.17,10.0,East,4.6,-,N/A,,Clear,100,2013-10-11 17:55:00
11:15 AM,51.8,28.4,41,30.16,10.0,ESE,5.8,-,N/A,,Clear,110,2013-10-11 18:15:00
11:35 AM,53.6,26.6,35,30.15,10.0,SE,3.5,-,N/A,,Clear,130,2013-10-11 18:35:00
11:55 AM,55.4,23.0,29,30.14,10.0,SE,5.8,-,N/A,,Clear,140,2013-10-11 18:55:00
12:15 PM,55.4,23.0,29,30.14,10.0,South,8.1,-,N/A,,Clear,170,2013-10-11 19:15:00
12:35 PM,55.4,23.0,29,30.13,10.0,SE,4.6,-,N/A,,Clear,130,2013-10-11 19:35:00
12:55 PM,57.2,23.0,27,30.12,10.0,Calm,Calm,-,N/A,,Clear,0,2013-10-11 19:55:00
1:15 PM,57.2,23.0,27,30.11,10.0,ESE,9.2,-,N/A,,Clear,110,2013-10-11 20:15:00
1:35 PM,59.0,23.0,25,30.11,10.0,SE,5.8,-,N/A,,Clear,140,2013-10-11 20:35:00
1:55 PM,59.0,23.0,25,30.10,10.0,SE,8.1,-,N/A,,Clear,130,2013-10-11 20:55:00
2:15 PM,59.0,23.0,25,30.09,10.0,SE,6.9,-,N/A,,Clear,130,2013-10-11 21:15:00
2:35 PM,59.0,24.8,27,30.09,10.0,East,11.5,-,N/A,,Clear,100,2013-10-11 21:35:00
2:55 PM,59.0,23.0,25,30.09,10.0,ESE,9.2,-,N/A,,Clear,110,2013-10-11 21:55:00
3:15 PM,59.0,24.8,27,30.08,10.0,East,11.5,-,N/A,,Clear,90,2013-10-11 22:15:00
3:35 PM,60.8,23.0,23,30.08,10.0,ESE,6.9,-,N/A,,Clear,120,2013-10-11 22:35:00
3:55 PM,60.8,23.0,23,30.08,10.0,ESE,9.2,-,N/A,,Clear,120,2013-10-11 22:55:00
4:15 PM,59.0,23.0,25,30.08,10.0,SE,8.1,-,N/A,,Clear,130,2013-10-11 23:15:00
4:35 PM,59.0,23.0,25,30.08,10.0,East,6.9,-,N/A,,Clear,100,2013-10-11 23:35:00
4:55 PM,57.2,23.0,27,30.07,10.0,East,6.9,-,N/A,,Clear,100,2013-10-11 23:55:00
5:15 PM,55.4,24.8,31,30.07,10.0,ESE,9.2,-,N/A,,Clear,110,2013-10-12 00:15:00
5:35 PM,53.6,26.6,35,30.08,10.0,ESE,9.2,-,N/A,,Clear,110,2013-10-12 00:35:00
5:55 PM,51.8,24.8,35,30.08,10.0,ESE,6.9,-,N/A,,Clear,110,2013-10-12 00:55:00
6:15 PM,50.0,21.2,32,30.09,10.0,East,6.9,-,N/A,,Clear,100,2013-10-12 01:15:00
6:35 PM,48.2,21.2,34,30.09,10.0,East,3.5,-,N/A,,Clear,90,2013-10-12 01:35:00
6:55 PM,46.4,23.0,40,30.09,10.0,East,5.8,-,N/A,,Clear,90,2013-10-12 01:55:00
7:15 PM,44.6,23.0,43,30.10,10.0,Calm,Calm,-,N/A,,Clear,0,2013-10-12 02:15:00
7:35 PM,42.8,24.8,49,30.10,10.0,West,6.9,-,N/A,,Clear,270,2013-10-12 02:35:00
7:55 PM,39.2,23.0,52,30.11,10.0,North,3.5,-,N/A,,Clear,10,2013-10-12 02:55:00
8:15 PM,41.0,24.8,53,30.11,10.0,Calm,Calm,-,N/A,,Clear,0,2013-10-12 03:15:00
8:35 PM,42.8,26.6,53,30.12,10.0,Calm,Calm,-,N/A,,Clear,0,2013-10-12 03:35:00
8:55 PM,39.2,24.8,56,30.12,10.0,Calm,Calm,-,N/A,,Clear,0,2013-10-12 03:55:00
9:15 PM,35.6,24.8,65,30.13,10.0,North,3.5,-,N/A,,Clear,10,2013-10-12 04:15:00
9:35 PM,33.8,24.8,70,30.14,10.0,NNW,6.9,-,N/A,,Clear,340,2013-10-12 04:35:00
9:55 PM,35.6,23.0,60,30.14,10.0,Calm,Calm,-,N/A,,Clear,0,2013-10-12 04:55:00
10:15 PM,35.6,23.0,60,30.14,10.0,Calm,Calm,-,N/A,,Clear,0,2013-10-12 05:15:00
10:35 PM,32.0,21.2,64,30.14,10.0,Calm,Calm,-,N/A,,Clear,0,2013-10-12 05:35:00
10:55 PM,33.8,24.8,70,30.14,10.0,North,3.5,-,N/A,,Clear,10,2013-10-12 05:55:00
11:15 PM,33.8,24.8,70,30.13,10.0,Calm,Calm,-,N/A,,Clear,0,2013-10-12 06:15:00
11:35 PM,35.6,24.8,65,30.12,10.0,NNW,3.5,-,N/A,,Clear,330,2013-10-12 06:35:00
11:55 PM,33.8,24.8,70,30.12,10.0,Calm,Calm,-,N/A,,Clear,0,2013-10-12 06:55:00